JBU2119 KORH-KFLL

Flight info

Callsign JBU2119
Flight time 2h 36m
Altitude 36000
Route GRAYM ORW CCC Q97 KALDA Q161 CHIEZ Y291 MAJIK CUUDA3
Aircraft A320/M-SDE3FGHIRWY/LB1

Departure

Time 2026-04-22 13:34
Airport Worcester Regional Airport (KORH)

Arrival

Time 2026-04-22 16:10
Airport Fort Lauderdale Hollywood International Airport (KFLL)
Time Latitude Longitude Altitude Speed Heading
2026-04-22 13:23 42.26928 -71.87125 1002 ft 0 kts 48°
2026-04-22 13:26 42.26919 -71.87138 1002 ft 2 kts 48°
2026-04-22 13:27 42.26909 -71.87154 1002 ft 2 kts 31°
2026-04-22 13:27 42.26893 -71.87162 1002 ft 2 kts 357°
2026-04-22 13:27 42.26877 -71.87157 1002 ft 2 kts 322°
2026-04-22 13:27 42.26872 -71.87153 1002 ft 0 kts 314°
2026-04-22 13:30 42.26877 -71.87159 1002 ft 7 kts 314°
2026-04-22 13:31 42.26903 -71.87312 1006 ft 23 kts 252°
2026-04-22 13:31 42.26818 -71.87555 1002 ft 33 kts 244°
2026-04-22 13:31 42.26712 -71.87837 997 ft 33 kts 242°
2026-04-22 13:31 42.26686 -71.88070 996 ft 24 kts 274°
2026-04-22 13:32 42.26697 -71.88356 998 ft 38 kts 274°
2026-04-22 13:32 42.26713 -71.88708 993 ft 37 kts 271°
2026-04-22 13:32 42.26727 -71.89019 994 ft 10 kts 294°
2026-04-22 13:32 42.26747 -71.89043 993 ft 2 kts 273°
2026-04-22 13:33 42.26740 -71.89044 996 ft 0 kts 190°
2026-04-22 13:33 42.26732 -71.89032 990 ft 5 kts 126°
2026-04-22 13:33 42.26730 -71.88983 994 ft 13 kts 96°
2026-04-22 13:33 42.26698 -71.88464 997 ft 96 kts 92°
2026-04-22 13:34 42.26641 -71.87266 1003 ft 157 kts 96°
2026-04-22 13:34 42.26557 -71.85710 1556 ft 173 kts 99°
2026-04-22 13:34 42.26423 -71.83956 2064 ft 200 kts 105°
2026-04-22 13:34 42.25899 -71.82181 2580 ft 209 kts 125°
2026-04-22 13:35 42.25137 -71.80406 2971 ft 225 kts 127°
2026-04-22 13:35 42.24234 -71.78610 3454 ft 239 kts 139°
2026-04-22 13:35 42.22862 -71.77338 4071 ft 242 kts 164°
2026-04-22 13:35 42.21205 -71.77077 4795 ft 243 kts 192°
2026-04-22 13:36 42.19548 -71.77606 5588 ft 247 kts 198°
2026-04-22 13:36 42.17857 -71.78208 6318 ft 255 kts 199°
2026-04-22 13:36 42.16122 -71.78833 7044 ft 261 kts 200°
2026-04-22 13:36 42.14346 -71.79473 7762 ft 267 kts 199°
2026-04-22 13:37 42.12528 -71.80119 8490 ft 273 kts 199°
2026-04-22 13:37 42.10673 -71.80774 9221 ft 279 kts 199°
2026-04-22 13:37 42.08775 -71.81442 9944 ft 284 kts 199°
2026-04-22 13:37 42.06824 -71.82133 10405 ft 300 kts 200°
2026-04-22 13:38 42.04730 -71.82878 10591 ft 322 kts 199°
2026-04-22 13:38 42.00133 -71.84500 10901 ft 363 kts 199°
2026-04-22 13:38 41.97656 -71.85363 11412 ft 370 kts 199°
2026-04-22 13:39 41.95151 -71.86230 12011 ft 373 kts 199°
2026-04-22 13:39 41.92624 -71.87102 12605 ft 377 kts 199°
2026-04-22 13:39 41.90072 -71.87989 13212 ft 381 kts 199°
2026-04-22 13:39 41.87498 -71.88886 13817 ft 384 kts 199°
2026-04-22 13:40 41.84900 -71.89790 14389 ft 387 kts 199°
2026-04-22 13:40 41.83131 -71.90404 14744 ft 390 kts 199°
2026-04-22 13:40 41.80492 -71.91318 15259 ft 393 kts 199°
2026-04-22 13:40 41.77869 -71.92229 15759 ft 397 kts 199°
2026-04-22 13:41 41.75189 -71.93161 16260 ft 400 kts 200°
2026-04-22 13:41 41.72483 -71.94106 16761 ft 403 kts 200°
2026-04-22 13:41 41.69756 -71.95058 17258 ft 407 kts 200°
2026-04-22 13:41 41.67006 -71.96013 17766 ft 410 kts 200°
2026-04-22 13:42 41.64226 -71.96973 18278 ft 414 kts 200°
2026-04-22 13:42 41.61422 -71.97938 18748 ft 418 kts 200°
2026-04-22 13:42 41.58623 -71.99023 19195 ft 417 kts 206°
2026-04-22 13:42 41.55993 -72.00628 19642 ft 413 kts 215°
2026-04-22 13:43 41.53609 -72.02738 20103 ft 410 kts 224°
2026-04-22 13:43 41.51528 -72.05245 20555 ft 408 kts 230°
2026-04-22 13:43 41.49489 -72.07897 20997 ft 411 kts 230°
2026-04-22 13:43 41.47428 -72.10561 21432 ft 413 kts 229°
2026-04-22 13:44 41.45354 -72.13233 21849 ft 416 kts 229°
2026-04-22 13:44 41.43264 -72.15917 22248 ft 418 kts 229°
2026-04-22 13:44 41.41162 -72.18611 22644 ft 421 kts 229°
2026-04-22 13:44 41.39048 -72.21320 23022 ft 423 kts 229°
2026-04-22 13:45 41.36922 -72.24049 23399 ft 425 kts 229°
2026-04-22 13:45 41.34786 -72.26789 23774 ft 428 kts 229°
2026-04-22 13:45 41.32633 -72.29544 24085 ft 430 kts 229°
2026-04-22 13:45 41.30472 -72.32309 24398 ft 432 kts 229°
2026-04-22 13:46 41.28301 -72.35082 24728 ft 434 kts 229°
2026-04-22 13:46 41.26118 -72.37869 25046 ft 436 kts 229°
2026-04-22 13:46 41.23929 -72.40664 25368 ft 438 kts 229°
2026-04-22 13:46 41.21730 -72.43469 25692 ft 439 kts 229°
2026-04-22 13:47 41.19524 -72.46275 26139 ft 437 kts 230°
2026-04-22 13:47 41.17333 -72.49058 26601 ft 436 kts 230°
2026-04-22 13:47 41.15175 -72.51797 27067 ft 434 kts 230°
2026-04-22 13:47 41.12992 -72.54561 27542 ft 433 kts 230°
2026-04-22 13:48 41.10817 -72.57315 28018 ft 432 kts 230°
2026-04-22 13:48 41.08651 -72.60060 28488 ft 430 kts 230°
2026-04-22 13:48 41.06493 -72.62796 28968 ft 429 kts 230°
2026-04-22 13:48 41.04337 -72.65524 29421 ft 428 kts 230°
2026-04-22 13:49 41.02189 -72.68246 29895 ft 427 kts 230°
2026-04-22 13:49 41.00046 -72.70956 30358 ft 426 kts 230°
2026-04-22 13:49 40.97904 -72.73656 30755 ft 425 kts 230°
2026-04-22 13:49 40.95766 -72.76345 31153 ft 424 kts 230°
2026-04-22 13:50 40.93629 -72.79031 31538 ft 424 kts 229°
2026-04-22 13:50 40.91322 -72.81494 31920 ft 429 kts 223°
2026-04-22 13:50 40.88921 -72.83834 32311 ft 428 kts 223°
2026-04-22 13:50 40.86528 -72.86166 32701 ft 428 kts 223°
2026-04-22 13:51 40.84135 -72.88496 33100 ft 427 kts 224°
2026-04-22 13:51 40.81777 -72.90793 33486 ft 426 kts 224°
2026-04-22 13:51 40.79388 -72.93117 33877 ft 426 kts 224°
2026-04-22 13:51 40.77008 -72.95431 34265 ft 425 kts 224°
2026-04-22 13:52 40.74625 -72.97744 34540 ft 425 kts 223°
2026-04-22 13:52 40.72243 -73.00054 34819 ft 425 kts 223°
2026-04-22 13:52 40.69859 -73.02367 35069 ft 426 kts 223°
2026-04-22 13:52 40.67471 -73.04681 35324 ft 426 kts 223°
2026-04-22 13:53 40.65080 -73.06993 35575 ft 427 kts 223°
2026-04-22 13:53 40.62683 -73.09312 35812 ft 427 kts 223°
2026-04-22 13:53 40.60284 -73.11633 36051 ft 428 kts 223°
2026-04-22 13:53 40.57881 -73.13953 36192 ft 429 kts 223°
2026-04-22 13:54 40.53003 -73.18661 36219 ft 441 kts 223°
2026-04-22 13:54 40.48031 -73.23446 36213 ft 444 kts 222°
2026-04-22 13:55 40.43040 -73.28238 36210 ft 445 kts 222°
2026-04-22 13:55 40.38071 -73.32999 36199 ft 445 kts 222°
2026-04-22 13:56 40.33066 -73.37778 36193 ft 445 kts 222°
2026-04-22 13:56 40.28062 -73.42549 36185 ft 445 kts 222°
2026-04-22 13:57 40.23058 -73.47327 36179 ft 445 kts 222°
2026-04-22 13:57 40.18038 -73.52080 36171 ft 445 kts 222°
2026-04-22 13:58 40.13005 -73.56824 36168 ft 446 kts 222°
2026-04-22 13:58 40.07977 -73.61555 36166 ft 446 kts 222°
2026-04-22 13:59 40.02977 -73.66258 36161 ft 446 kts 222°
2026-04-22 13:59 39.97917 -73.70991 36139 ft 450 kts 219°
2026-04-22 14:00 39.92236 -73.74693 36130 ft 462 kts 208°
2026-04-22 14:00 39.86270 -73.77873 36127 ft 464 kts 208°
2026-04-22 14:01 39.80284 -73.81060 36127 ft 465 kts 208°
2026-04-22 14:01 39.74289 -73.84242 36128 ft 466 kts 208°
2026-04-22 14:02 39.68287 -73.87432 36123 ft 466 kts 208°
2026-04-22 14:02 39.62279 -73.90619 36136 ft 467 kts 208°
2026-04-22 14:03 39.56269 -73.93793 36141 ft 467 kts 207°
2026-04-22 14:03 39.50248 -73.96964 36153 ft 467 kts 207°
2026-04-22 14:04 39.44234 -74.00135 36159 ft 466 kts 208°
2026-04-22 14:04 39.38782 -74.04383 36159 ft 452 kts 225°
2026-04-22 14:05 39.33992 -74.09636 36161 ft 452 kts 226°
2026-04-22 14:06 39.26789 -74.17490 36161 ft 452 kts 225°
2026-04-22 14:06 39.22016 -74.22679 36159 ft 452 kts 225°
2026-04-22 14:07 39.17203 -74.27894 36155 ft 452 kts 225°
2026-04-22 14:07 39.12399 -74.33110 36154 ft 452 kts 225°
2026-04-22 14:08 39.07588 -74.38321 36156 ft 452 kts 225°
2026-04-22 14:08 39.02773 -74.43513 36156 ft 452 kts 225°
2026-04-22 14:09 38.97956 -74.48698 36156 ft 452 kts 225°
2026-04-22 14:09 38.93148 -74.53896 36157 ft 451 kts 226°
2026-04-22 14:10 38.88487 -74.59270 36154 ft 450 kts 228°
2026-04-22 14:10 38.83913 -74.64753 36154 ft 450 kts 228°
2026-04-22 14:11 38.79343 -74.70152 36155 ft 450 kts 227°
2026-04-22 14:11 38.74704 -74.75541 36154 ft 451 kts 226°
2026-04-22 14:12 38.69893 -74.80716 36159 ft 452 kts 224°
2026-04-22 14:12 38.64960 -74.85724 36156 ft 453 kts 223°
2026-04-22 14:13 38.60036 -74.90746 36155 ft 452 kts 224°
2026-04-22 14:13 38.55147 -74.95811 36149 ft 452 kts 224°
2026-04-22 14:14 38.50304 -75.00932 36144 ft 451 kts 226°
2026-04-22 14:14 38.45567 -75.06189 36143 ft 452 kts 225°
2026-04-22 14:15 38.40596 -75.11147 36142 ft 455 kts 221°
2026-04-22 14:15 38.35501 -75.15834 36141 ft 455 kts 221°
2026-04-22 14:16 38.30373 -75.20576 36140 ft 455 kts 221°
2026-04-22 14:16 38.25296 -75.25381 36143 ft 455 kts 222°
2026-04-22 14:17 38.20227 -75.30196 36144 ft 455 kts 221°
2026-04-22 14:17 38.15143 -75.34995 36143 ft 455 kts 221°
2026-04-22 14:18 38.10051 -75.39780 36150 ft 455 kts 221°
2026-04-22 14:18 38.04962 -75.44566 36146 ft 455 kts 221°
2026-04-22 14:19 37.99781 -75.49216 36150 ft 457 kts 219°
2026-04-22 14:19 37.94516 -75.53727 36146 ft 457 kts 219°
2026-04-22 14:20 37.86621 -75.60507 36144 ft 458 kts 217°
2026-04-22 14:20 37.80770 -75.63866 36145 ft 469 kts 200°
2026-04-22 14:21 37.71368 -75.67159 36144 ft 470 kts 200°
2026-04-22 14:22 37.61928 -75.70489 36146 ft 470 kts 200°
2026-04-22 14:23 37.52484 -75.73795 36147 ft 469 kts 200°
2026-04-22 14:23 37.46189 -75.75986 36149 ft 469 kts 200°
2026-04-22 14:24 37.39896 -75.78180 36152 ft 469 kts 200°
2026-04-22 14:24 37.33610 -75.80379 36154 ft 469 kts 200°
2026-04-22 14:25 37.27317 -75.82568 36157 ft 469 kts 200°
2026-04-22 14:25 37.21022 -75.84753 36166 ft 469 kts 200°
2026-04-22 14:26 37.14727 -75.86927 36175 ft 469 kts 200°
2026-04-22 14:26 37.08516 -75.89350 36174 ft 463 kts 208°
2026-04-22 14:27 37.02873 -75.93129 36174 ft 459 kts 214°
2026-04-22 14:27 36.97289 -75.97016 36176 ft 460 kts 214°
2026-04-22 14:28 36.91695 -76.00892 36182 ft 460 kts 214°
2026-04-22 14:28 36.86138 -76.04734 36179 ft 460 kts 214°
2026-04-22 14:29 36.80539 -76.08601 36180 ft 460 kts 214°
2026-04-22 14:29 36.74943 -76.12462 36201 ft 460 kts 214°
2026-04-22 14:30 36.69349 -76.16316 36202 ft 459 kts 214°
2026-04-22 14:30 36.63757 -76.20171 36203 ft 459 kts 214°
2026-04-22 14:31 36.58162 -76.24009 36215 ft 459 kts 214°
2026-04-22 14:31 36.52571 -76.27834 36215 ft 459 kts 214°
2026-04-22 14:32 36.46980 -76.31659 36217 ft 458 kts 214°
2026-04-22 14:32 36.42332 -76.34836 36235 ft 458 kts 214°
2026-04-22 14:33 36.36752 -76.38647 36238 ft 458 kts 214°
2026-04-22 14:33 36.31169 -76.42449 36226 ft 458 kts 214°
2026-04-22 14:34 36.25587 -76.46241 36237 ft 457 kts 214°
2026-04-22 14:34 36.20014 -76.50022 36249 ft 457 kts 214°
2026-04-22 14:35 36.14443 -76.53803 36249 ft 456 kts 214°
2026-04-22 14:35 36.08874 -76.57575 36259 ft 456 kts 214°
2026-04-22 14:36 36.03295 -76.61336 36257 ft 456 kts 213°
2026-04-22 14:36 35.97721 -76.65092 36257 ft 456 kts 214°
2026-04-22 14:37 35.92189 -76.68820 36256 ft 456 kts 214°
2026-04-22 14:37 35.86579 -76.72481 36253 ft 457 kts 212°
2026-04-22 14:38 35.80867 -76.75934 36257 ft 457 kts 211°
2026-04-22 14:38 35.75141 -76.79339 36264 ft 456 kts 211°
2026-04-22 14:39 35.69450 -76.82785 36273 ft 456 kts 212°
2026-04-22 14:39 35.63775 -76.86251 36272 ft 455 kts 212°
2026-04-22 14:40 35.55256 -76.91427 36277 ft 455 kts 212°
2026-04-22 14:40 35.49598 -76.94902 36275 ft 454 kts 212°
2026-04-22 14:41 35.43947 -76.98370 36273 ft 454 kts 212°
2026-04-22 14:41 35.38322 -77.01807 36270 ft 453 kts 212°
2026-04-22 14:42 35.32677 -77.05250 36271 ft 453 kts 212°
2026-04-22 14:42 35.27036 -77.08693 36284 ft 453 kts 212°
2026-04-22 14:43 35.21399 -77.12130 36290 ft 452 kts 212°
2026-04-22 14:43 35.15765 -77.15567 36292 ft 452 kts 212°
2026-04-22 14:44 35.10132 -77.18987 36294 ft 452 kts 212°
2026-04-22 14:44 35.04506 -77.22391 36297 ft 451 kts 212°
2026-04-22 14:45 34.98882 -77.25790 36294 ft 451 kts 212°
2026-04-22 14:45 34.93260 -77.29178 36297 ft 450 kts 212°
2026-04-22 14:46 34.87687 -77.32537 36299 ft 449 kts 212°
2026-04-22 14:46 34.82086 -77.35911 36297 ft 449 kts 212°
2026-04-22 14:47 34.76498 -77.39273 36300 ft 448 kts 212°
2026-04-22 14:47 34.70916 -77.42622 36302 ft 447 kts 212°
2026-04-22 14:48 34.65343 -77.45967 36303 ft 446 kts 213°
2026-04-22 14:48 34.59783 -77.49300 36304 ft 445 kts 213°
2026-04-22 14:49 34.54227 -77.52617 36307 ft 445 kts 212°
2026-04-22 14:49 34.48232 -77.54861 36303 ft 459 kts 197°
2026-04-22 14:50 34.41954 -77.56237 36309 ft 458 kts 197°
2026-04-22 14:50 34.35684 -77.57615 36306 ft 458 kts 197°
2026-04-22 14:51 34.29417 -77.58996 36304 ft 458 kts 197°
2026-04-22 14:51 34.23148 -77.60370 36307 ft 457 kts 197°
2026-04-22 14:52 34.16938 -77.61737 36306 ft 457 kts 197°
2026-04-22 14:52 34.10688 -77.63116 36305 ft 456 kts 197°
2026-04-22 14:53 34.04434 -77.64494 36303 ft 456 kts 197°
2026-04-22 14:53 33.98189 -77.65857 36303 ft 456 kts 197°
2026-04-22 14:54 33.91947 -77.67223 36303 ft 456 kts 197°
2026-04-22 14:54 33.85704 -77.68584 36300 ft 456 kts 197°
2026-04-22 14:55 33.79464 -77.69938 36303 ft 456 kts 197°
2026-04-22 14:55 33.73223 -77.71298 36299 ft 455 kts 197°
2026-04-22 14:56 33.67030 -77.72796 36298 ft 450 kts 202°
2026-04-22 14:56 33.60981 -77.74779 36293 ft 450 kts 202°
2026-04-22 14:57 33.54969 -77.76751 36298 ft 451 kts 202°
2026-04-22 14:57 33.48914 -77.78725 36295 ft 451 kts 202°
2026-04-22 14:58 33.42859 -77.80711 36291 ft 451 kts 202°
2026-04-22 14:58 33.36801 -77.82690 36296 ft 451 kts 202°
2026-04-22 14:59 33.30738 -77.84656 36295 ft 452 kts 202°
2026-04-22 14:59 33.24673 -77.86614 36303 ft 452 kts 201°
2026-04-22 15:00 33.18647 -77.88564 36310 ft 451 kts 201°
2026-04-22 15:00 33.12582 -77.90523 36309 ft 451 kts 201°
2026-04-22 15:01 33.06528 -77.92483 36310 ft 451 kts 201°
2026-04-22 15:01 33.00485 -77.94472 36310 ft 450 kts 202°
2026-04-22 15:02 32.94480 -77.96546 36310 ft 449 kts 202°
2026-04-22 15:02 32.88480 -77.98635 36308 ft 449 kts 202°
2026-04-22 15:03 32.82522 -78.00683 36306 ft 448 kts 202°
2026-04-22 15:03 32.76525 -78.02726 36309 ft 448 kts 202°
2026-04-22 15:04 32.70521 -78.04756 36320 ft 448 kts 202°
2026-04-22 15:04 32.64520 -78.06791 36314 ft 449 kts 202°
2026-04-22 15:05 32.58517 -78.08828 36318 ft 449 kts 202°
2026-04-22 15:05 32.52510 -78.10862 36313 ft 449 kts 202°
2026-04-22 15:06 32.46507 -78.12899 36314 ft 449 kts 202°
2026-04-22 15:06 32.40505 -78.14936 36321 ft 449 kts 202°
2026-04-22 15:07 32.34501 -78.16957 36320 ft 448 kts 202°
2026-04-22 15:07 32.28502 -78.18978 36322 ft 448 kts 202°
2026-04-22 15:08 32.22508 -78.20991 36323 ft 448 kts 202°
2026-04-22 15:08 32.16519 -78.23002 36320 ft 447 kts 202°
2026-04-22 15:09 32.10530 -78.25015 36320 ft 447 kts 202°
2026-04-22 15:09 32.04590 -78.27010 36315 ft 447 kts 202°
2026-04-22 15:10 31.98601 -78.29014 36310 ft 447 kts 202°
2026-04-22 15:10 31.92601 -78.31021 36310 ft 448 kts 202°
2026-04-22 15:11 31.86609 -78.33025 36308 ft 448 kts 202°
2026-04-22 15:11 31.80598 -78.35030 36308 ft 449 kts 202°
2026-04-22 15:12 31.74594 -78.37033 36307 ft 449 kts 202°
2026-04-22 15:12 31.68573 -78.39037 36309 ft 449 kts 202°
2026-04-22 15:13 31.62589 -78.41028 36307 ft 450 kts 202°
2026-04-22 15:13 31.56558 -78.43020 36311 ft 450 kts 202°
2026-04-22 15:14 31.50533 -78.45002 36313 ft 450 kts 202°
2026-04-22 15:14 31.44508 -78.46957 36325 ft 449 kts 202°
2026-04-22 15:15 31.38483 -78.48910 36317 ft 449 kts 202°
2026-04-22 15:15 31.32473 -78.50858 36321 ft 448 kts 202°
2026-04-22 15:16 31.26459 -78.52801 36320 ft 448 kts 202°
2026-04-22 15:16 31.20455 -78.54741 36317 ft 448 kts 202°
2026-04-22 15:17 31.14449 -78.56671 36310 ft 448 kts 202°
2026-04-22 15:17 31.08479 -78.58599 36307 ft 448 kts 202°
2026-04-22 15:18 31.02477 -78.60542 36310 ft 448 kts 202°
2026-04-22 15:18 30.96469 -78.62473 36314 ft 448 kts 202°
2026-04-22 15:19 30.90450 -78.64405 36314 ft 448 kts 202°
2026-04-22 15:19 30.84435 -78.66333 36316 ft 448 kts 202°
2026-04-22 15:20 30.78419 -78.68259 36313 ft 448 kts 202°
2026-04-22 15:20 30.72405 -78.70184 36309 ft 448 kts 202°
2026-04-22 15:21 30.66392 -78.72103 36307 ft 448 kts 202°
2026-04-22 15:21 30.60376 -78.74022 36304 ft 448 kts 202°
2026-04-22 15:22 30.54358 -78.75938 36305 ft 448 kts 202°
2026-04-22 15:22 30.48339 -78.77856 36302 ft 449 kts 202°
2026-04-22 15:23 30.42311 -78.79768 36307 ft 449 kts 202°
2026-04-22 15:23 30.36321 -78.81665 36306 ft 449 kts 202°
2026-04-22 15:24 30.30286 -78.83578 36306 ft 449 kts 202°
2026-04-22 15:24 30.25272 -78.85169 36309 ft 450 kts 202°
2026-04-22 15:25 30.19234 -78.87087 36313 ft 450 kts 202°
2026-04-22 15:25 30.13188 -78.88998 36310 ft 450 kts 202°
2026-04-22 15:26 30.07140 -78.90894 36311 ft 450 kts 202°
2026-04-22 15:26 30.01094 -78.92796 36310 ft 450 kts 202°
2026-04-22 15:27 29.95038 -78.94705 36306 ft 451 kts 202°
2026-04-22 15:27 29.88988 -78.96608 36307 ft 451 kts 202°
2026-04-22 15:28 29.82936 -78.98515 36306 ft 451 kts 202°
2026-04-22 15:28 29.76733 -78.99946 36307 ft 457 kts 196°
2026-04-22 15:29 29.70447 -79.01098 36304 ft 457 kts 196°
2026-04-22 15:30 29.61020 -79.02850 36304 ft 458 kts 196°
2026-04-22 15:30 29.54729 -79.04013 36303 ft 458 kts 196°
2026-04-22 15:31 29.48434 -79.05172 36305 ft 458 kts 196°
2026-04-22 15:31 29.42183 -79.06316 36307 ft 458 kts 196°
2026-04-22 15:32 29.35881 -79.07460 36306 ft 458 kts 196°
2026-04-22 15:32 29.29581 -79.08616 36306 ft 459 kts 196°
2026-04-22 15:33 29.23272 -79.09782 36305 ft 459 kts 197°
2026-04-22 15:33 29.16966 -79.10941 36305 ft 459 kts 197°
2026-04-22 15:34 29.10655 -79.12097 36305 ft 459 kts 196°
2026-04-22 15:34 29.04353 -79.13248 36300 ft 459 kts 196°
2026-04-22 15:35 28.98089 -79.14389 36295 ft 458 kts 196°
2026-04-22 15:35 28.91789 -79.15527 36296 ft 458 kts 196°
2026-04-22 15:36 28.85487 -79.16669 36294 ft 458 kts 196°
2026-04-22 15:36 28.79188 -79.17815 36294 ft 458 kts 197°
2026-04-22 15:37 28.72893 -79.18961 36294 ft 458 kts 196°
2026-04-22 15:37 28.66590 -79.20106 36293 ft 458 kts 197°
2026-04-22 15:38 28.60290 -79.21253 36297 ft 458 kts 197°
2026-04-22 15:38 28.50839 -79.22956 36303 ft 458 kts 196°
2026-04-22 15:39 28.44535 -79.24095 36292 ft 459 kts 197°
2026-04-22 15:39 28.38234 -79.25234 36299 ft 459 kts 196°
2026-04-22 15:40 28.31951 -79.26451 36297 ft 454 kts 202°
2026-04-22 15:40 28.25911 -79.28393 36294 ft 451 kts 203°
2026-04-22 15:41 28.19875 -79.30353 36288 ft 451 kts 203°
2026-04-22 15:41 28.13880 -79.32302 36288 ft 451 kts 204°
2026-04-22 15:42 28.07841 -79.34252 36287 ft 451 kts 203°
2026-04-22 15:42 28.01799 -79.36197 36283 ft 452 kts 204°
2026-04-22 15:43 27.95758 -79.38155 36287 ft 452 kts 204°
2026-04-22 15:43 27.89712 -79.40104 36289 ft 452 kts 204°
2026-04-22 15:44 27.83661 -79.42052 36290 ft 452 kts 204°
2026-04-22 15:44 27.77605 -79.44005 36197 ft 452 kts 204°
2026-04-22 15:45 27.74586 -79.44979 35822 ft 448 kts 204°
2026-04-22 15:45 27.71592 -79.45940 35576 ft 447 kts 203°
2026-04-22 15:45 27.68604 -79.46899 35334 ft 447 kts 203°
2026-04-22 15:45 27.65612 -79.47860 35094 ft 447 kts 203°
2026-04-22 15:46 27.62619 -79.48823 34857 ft 448 kts 203°
2026-04-22 15:46 27.59620 -79.49786 34625 ft 448 kts 203°
2026-04-22 15:46 27.56615 -79.50749 34395 ft 449 kts 203°
2026-04-22 15:46 27.53607 -79.51713 34138 ft 450 kts 203°
2026-04-22 15:47 27.50596 -79.52678 33867 ft 450 kts 203°
2026-04-22 15:47 27.47581 -79.53643 33607 ft 451 kts 203°
2026-04-22 15:47 27.44559 -79.54609 33340 ft 452 kts 203°
2026-04-22 15:47 27.41541 -79.55577 33078 ft 451 kts 203°
2026-04-22 15:48 27.38561 -79.56530 32834 ft 450 kts 202°
2026-04-22 15:48 27.35553 -79.57481 32573 ft 448 kts 202°
2026-04-22 15:48 27.32552 -79.58419 32318 ft 447 kts 202°
2026-04-22 15:48 27.29564 -79.59351 32064 ft 445 kts 202°
2026-04-22 15:49 27.26587 -79.60282 31811 ft 443 kts 202°
2026-04-22 15:49 27.23628 -79.61210 31560 ft 441 kts 202°
2026-04-22 15:49 27.20676 -79.62140 31312 ft 440 kts 202°
2026-04-22 15:49 27.17733 -79.63067 31070 ft 438 kts 202°
2026-04-22 15:50 27.14805 -79.63996 30828 ft 437 kts 202°
2026-04-22 15:50 27.11891 -79.64929 30590 ft 435 kts 202°
2026-04-22 15:50 27.08990 -79.65864 30318 ft 432 kts 202°
2026-04-22 15:50 27.06119 -79.66787 29282 ft 427 kts 202°
2026-04-22 15:51 27.03273 -79.67699 28192 ft 423 kts 202°
2026-04-22 15:51 27.00457 -79.68601 27171 ft 419 kts 202°
2026-04-22 15:51 26.97668 -79.69493 26189 ft 414 kts 202°
2026-04-22 15:51 26.94913 -79.70375 25253 ft 410 kts 201°
2026-04-22 15:52 26.92176 -79.71250 24375 ft 407 kts 201°
2026-04-22 15:52 26.89488 -79.72105 23767 ft 397 kts 201°
2026-04-22 15:52 26.86889 -79.72929 22950 ft 390 kts 201°
2026-04-22 15:52 26.84297 -79.73752 22138 ft 384 kts 200°
2026-04-22 15:53 26.81749 -79.74564 21347 ft 378 kts 200°
2026-04-22 15:53 26.79244 -79.75363 20571 ft 372 kts 200°
2026-04-22 15:53 26.76772 -79.76148 19802 ft 366 kts 199°
2026-04-22 15:53 26.74344 -79.76915 19058 ft 360 kts 199°
2026-04-22 15:54 26.71950 -79.77667 18312 ft 355 kts 198°
2026-04-22 15:54 26.69594 -79.78418 17481 ft 349 kts 200°
2026-04-22 15:54 26.67307 -79.79257 16670 ft 343 kts 201°
2026-04-22 15:54 26.65085 -79.80163 16020 ft 335 kts 202°
2026-04-22 15:55 26.62938 -79.81074 15423 ft 327 kts 202°
2026-04-22 15:55 26.60828 -79.81976 14740 ft 323 kts 202°
2026-04-22 15:55 26.58732 -79.82861 14068 ft 320 kts 201°
2026-04-22 15:55 26.56651 -79.83726 13330 ft 318 kts 201°
2026-04-22 15:56 26.54590 -79.84587 12652 ft 314 kts 202°
2026-04-22 15:56 26.52598 -79.85488 12178 ft 305 kts 203°
2026-04-22 15:56 26.50655 -79.86408 11582 ft 302 kts 204°
2026-04-22 15:56 26.48735 -79.87333 10975 ft 300 kts 204°
2026-04-22 15:57 26.46822 -79.88254 10375 ft 299 kts 203°
2026-04-22 15:57 26.44913 -79.89166 9728 ft 297 kts 203°
2026-04-22 15:57 26.43021 -79.90062 9115 ft 294 kts 202°
2026-04-22 15:57 26.41153 -79.90943 8568 ft 289 kts 202°
2026-04-22 15:58 26.39348 -79.91791 8199 ft 283 kts 201°
2026-04-22 15:58 26.37586 -79.92743 7894 ft 280 kts 208°
2026-04-22 15:58 26.35900 -79.93837 7741 ft 281 kts 208°
2026-04-22 15:58 26.34202 -79.94929 7567 ft 281 kts 207°
2026-04-22 15:59 26.32514 -79.96012 7383 ft 280 kts 208°
2026-04-22 15:59 26.30830 -79.97089 7206 ft 278 kts 207°
2026-04-22 15:59 26.29153 -79.98161 7027 ft 278 kts 207°
2026-04-22 15:59 26.27472 -79.99237 6847 ft 279 kts 207°
2026-04-22 16:00 26.25797 -80.00313 6669 ft 278 kts 207°
2026-04-22 16:00 26.24124 -80.01388 6481 ft 277 kts 207°
2026-04-22 16:00 26.22458 -80.02461 6295 ft 277 kts 207°
2026-04-22 16:00 26.20787 -80.03536 6107 ft 277 kts 207°
2026-04-22 16:01 26.19190 -80.04738 5932 ft 279 kts 219°
2026-04-22 16:01 26.17926 -80.06388 5745 ft 283 kts 236°
2026-04-22 16:01 26.17113 -80.08387 5565 ft 285 kts 250°
2026-04-22 16:01 26.16492 -80.10487 5366 ft 286 kts 250°
2026-04-22 16:02 26.15867 -80.12560 5184 ft 285 kts 250°
2026-04-22 16:02 26.15259 -80.14662 4983 ft 286 kts 255°
2026-04-22 16:02 26.15026 -80.16847 4796 ft 286 kts 270°
2026-04-22 16:02 26.15047 -80.19074 4613 ft 288 kts 270°
2026-04-22 16:03 26.15062 -80.21293 4421 ft 286 kts 270°
2026-04-22 16:03 26.15071 -80.23510 4246 ft 286 kts 270°
2026-04-22 16:03 26.15080 -80.25717 4053 ft 284 kts 270°
2026-04-22 16:03 26.15099 -80.27942 3599 ft 289 kts 270°
2026-04-22 16:04 26.15115 -80.30153 3458 ft 281 kts 270°
2026-04-22 16:04 26.15114 -80.32293 3345 ft 272 kts 269°
2026-04-22 16:04 26.15094 -80.34368 3205 ft 264 kts 269°
2026-04-22 16:04 26.15058 -80.36352 3097 ft 255 kts 265°
2026-04-22 16:05 26.14815 -80.37635 3029 ft 250 kts 245°
2026-04-22 16:05 26.13322 -80.39447 3023 ft 240 kts 202°
2026-04-22 16:05 26.11755 -80.39907 3012 ft 229 kts 173°
2026-04-22 16:05 26.10197 -80.39650 3019 ft 226 kts 163°
2026-04-22 16:06 26.08676 -80.39214 3018 ft 223 kts 152°
2026-04-22 16:06 26.07618 -80.38125 3015 ft 205 kts 110°
2026-04-22 16:06 26.07554 -80.36596 3021 ft 201 kts 76°
2026-04-22 16:06 26.07809 -80.35063 3020 ft 201 kts 88°
2026-04-22 16:07 26.07795 -80.33501 3021 ft 202 kts 91°
2026-04-22 16:07 26.07774 -80.31946 3022 ft 202 kts 90°
2026-04-22 16:07 26.07764 -80.30394 2817 ft 198 kts 90°
2026-04-22 16:07 26.07756 -80.28865 2390 ft 198 kts 90°
2026-04-22 16:08 26.07749 -80.27341 1959 ft 194 kts 90°
2026-04-22 16:08 26.07742 -80.25892 1695 ft 181 kts 90°
2026-04-22 16:08 26.07735 -80.24547 1451 ft 168 kts 90°
2026-04-22 16:08 26.07729 -80.23288 1229 ft 157 kts 90°
2026-04-22 16:09 26.07723 -80.22112 1042 ft 146 kts 90°
2026-04-22 16:09 26.07717 -80.21012 841 ft 143 kts 89°
2026-04-22 16:09 26.07712 -80.19916 660 ft 139 kts 89°
2026-04-22 16:09 26.07706 -80.18834 470 ft 140 kts 91°
2026-04-22 16:10 26.07700 -80.17771 291 ft 136 kts 92°
2026-04-22 16:10 26.07691 -80.16699 85 ft 138 kts 90°
2026-04-22 16:10 26.07686 -80.16016 20 ft 122 kts 91°
2026-04-22 16:10 26.07687 -80.15141 15 ft 35 kts 90°
2026-04-22 16:11 26.07625 -80.14920 17 ft 29 kts 120°
2026-04-22 16:11 26.07537 -80.14783 16 ft 21 kts 143°
2026-04-22 16:11 26.07423 -80.14781 16 ft 11 kts 135°
2026-04-22 16:11 26.07368 -80.14737 16 ft 0 kts 149°